Domov               UVHVVR             MKGP            O straneh              
ZDRAVSTVENO VARSTVO RASTLIN
  MREŽA AGROMET. POSTAJ
 ► PROGNOSTIČNA OBVESTILA
AGROMETEOROLOŠKI PODATKI -
ARSO
OBVLADOVANJE TVEGANJ ZARADI
NEUGODNIH VREMENSKIH RAZMER
  ► NARAVNE NESREČE
  ► SUŠA/MOČA
  ► NAMAKANJE
  ► ŽLED (gozdarstvo)
KARTOGRAFSKI PRIKAZI
SPLETNE POVEZAVE
PROJEKTI IN PUBLIKACIJE

AGROMETEOROLOŠKA MREŽA: VREMENSKE POSTAJE IN FENOLOŠKA OPAZOVANJA

Pregled podatkov za lokacijo Braslovče (Pšaker), meteorološka postaja 39323

Pregled senzorjev na lokaciji

ID Ime Zadnja
vrednost
Datum
zadnje
spremembe
Tip
senzorja
1914 Temperatura 2 m (°C) -0,56 °C 16.12.2017 18:30 50YA
1915 Relativna vlaga 2 m (% RH) 99,93 % RH 16.12.2017 18:30 50YA
2040 Padavine (mm) 0 mm 16.12.2017 18:30 Rain-O-Matic
2041 Omočenost lista (U) 6 U 16.12.2017 18:30 A730WET

Pregled podatkov zadnjih 24 ur

Zap.
št.
Datum in čas Braslovče (Pšaker)
Omočenost
lista
Padavine Relativna
vlaga
2
m
Temperatura
2
m
0 16.12.2017 18:30 6 0 99,93 -0,56
1 16.12.2017 18:00 3 0 99,93 -0,17
2 16.12.2017 17:30 2 0 99,93 0,34
3 16.12.2017 17:00 1 0 99,93 0,95
4 16.12.2017 16:30 0 0 99,93 1,83
5 16.12.2017 16:00 0 0 99,8 2,69
6 16.12.2017 15:30 0 0 98,24 3,42
7 16.12.2017 15:00 0 0 96,53 3,71
8 16.12.2017 14:30 0 0 91,94 4,05
9 16.12.2017 14:00 0 0 94,53 4,05
10 16.12.2017 13:30 3 0 88,74 4,35
11 16.12.2017 13:00 9 0 89,13 4,27
12 16.12.2017 12:30 10 0 89,79 4,15
13 16.12.2017 12:00 10 0 90,43 4,08
14 16.12.2017 11:30 10 0 90,33 3,96
15 16.12.2017 11:00 10 0 92,94 3,52
16 16.12.2017 10:30 10 0 99,54 2,76
17 16.12.2017 10:00 10 0 99,93 2,2
18 16.12.2017 09:30 10 0 99,93 1,76
19 16.12.2017 09:00 10 0 99,93 1,32
20 16.12.2017 08:30 10 0 99,93 1,07
21 16.12.2017 08:00 10 0 99,93 1,05
22 16.12.2017 07:30 10 0 99,93 0,95
23 16.12.2017 07:00 10 0 99,93 1
24 16.12.2017 06:30 10 0 99,93 1,1
25 16.12.2017 06:00 10 0 99,93 0,95
26 16.12.2017 05:30 10 0 99,93 0,88
27 16.12.2017 05:00 10 0 99,93 0,76
28 16.12.2017 04:30 10 0 99,93 0,78
29 16.12.2017 04:00 10 0 99,93 0,76
30 16.12.2017 03:30 10 0 99,93 0,78
31 16.12.2017 03:00 10 0 99,93 0,73
32 16.12.2017 02:30 10 0,2 99,93 0,66
33 16.12.2017 02:00 10 0 99,93 0,56
34 16.12.2017 01:30 10 0 99,93 0,46
35 16.12.2017 01:00 9 0 99,93 0,51
36 16.12.2017 00:30 9 0,2 99,93 0,61
37 16.12.2017 00:00 9 0,2 99,93 0,71
38 15.12.2017 23:30 4 0 99,93 0,85
39 15.12.2017 23:00 4 0 99,93 1,03
40 15.12.2017 22:30 4 0,2 99,93 1,12
41 15.12.2017 22:00 3 0,6 99,93 0,76
42 15.12.2017 21:30 6 0,8 99,93 0,29
43 15.12.2017 21:00 7 0,8 99,93 0,34
44 15.12.2017 20:30 7 1,2 99,93 0,44
45 15.12.2017 20:00 5 1,4 99,93 0,61
46 15.12.2017 19:30 2 1,2 99,93 0,85
© 2011 Ministrstvo za kmetijstvo, gozdarstvo in prehrano. Vse pravice pridržane.